Change the Weather History Date:

Monday, January 7, 2013

  Actual Average Record
Temperature  
Mean Temperature 22 °F -  
Max Temperature 37 °F 21 °F 45 °F (1949)
Min Temperature 7 °F 1 °F -29 °F (1986)
Degree Days  
Heating Degree Days 43    
Moisture  
Dew Point 15 °F    
Average Humidity 70    
Maximum Humidity 92    
Minimum Humidity 54    
Precipitation  
Precipitation 0.00 in - - ()
Sea Level Pressure  
Sea Level Pressure 29.95 in    
Wind  
Wind Speed 7 mph (SSW)    
Max Wind Speed 14 mph    
Max Gust Speed 25 mph    
Visibility 10 miles    
Events      
Averages and records for this station are not official NWS values.
T = Trace of Precipitation, MM = Missing Value Source: NWS Daily Summary

Daily Weather History Graph

Daily Weather History Graph

Search for Another Location

Airport or City:

Trip Planner

Search our weather history database for the weather conditions in past years. The results will help you decide how hot, cold, wet, or windy it might be!

Date:

Astronomy

Jan. 07, 2013 Rise Set
Actual Time 7:33 AM CST 4:25 PM CST
Civil Twilight 6:59 AM CST 4:58 PM CST
Nautical Twilight 6:21 AM CST 5:36 PM CST
Astronomical Twilight 5:45 AM CST 6:12 PM CST
Moon 2:52 AM CST (1/7) 12:38 PM CST (1/7)
Length of Visible Light 9h 59m
Length of Day
8h 52m
Waning Crescent, 22% of the Moon is Illuminated
Jan 7
Waning Crescent
Jan 11
New
Jan 18
First Quarter
Jan 26
Full
Feb 3
Last Quarter

Hourly Weather History & Observations

Time (CST) Temp. Windchill Dew Point Humidity Pressure Visibility Wind Dir Wind Speed Gust Speed Precip Events Conditions
12:54 AM 7.0 °F 0.1 °F 5.0 °F 92% 30.17 in 9.0 mi SE 3.5 mph - N/A   Clear
1:54 AM 10.0 °F 1.8 °F 6.1 °F 84% 30.14 in 10.0 mi SE 4.6 mph - N/A   Clear
2:54 AM 12.9 °F 3.8 °F 10.0 °F 88% 30.12 in 10.0 mi South 5.8 mph - N/A   Clear
3:54 AM 15.1 °F 4.2 °F 10.0 °F 80% 30.07 in 10.0 mi SSE 8.1 mph - N/A   Clear
4:54 AM 14.0 °F 5.1 °F 8.1 °F 77% 30.04 in 10.0 mi SE 5.8 mph - N/A   Clear
5:54 AM 15.1 °F 4.2 °F 8.1 °F 74% 30.02 in 10.0 mi South 8.1 mph - N/A   Clear
6:54 AM 15.1 °F 2.5 °F 8.1 °F 74% 30.00 in 10.0 mi South 10.4 mph - N/A   Clear
7:54 AM 16.0 °F 2.9 °F 9.0 °F 74% 29.98 in 10.0 mi South 11.5 mph - N/A   Clear
8:54 AM 17.1 °F 3.6 °F 10.0 °F 74% 29.96 in 10.0 mi South 12.7 mph 21.9 mph N/A   Clear
9:54 AM 19.9 °F 7.9 °F 12.0 °F 71% 29.95 in 10.0 mi South 11.5 mph - N/A   Clear
10:54 AM 28.0 °F 19.3 °F 16.0 °F 61% 29.91 in 10.0 mi SSW 9.2 mph - N/A   Clear
11:54 AM 32.0 °F 23.0 °F 19.0 °F 59% 29.85 in 10.0 mi South 11.5 mph - N/A   Clear
12:54 PM 36.0 °F 27.1 °F 21.0 °F 55% 29.83 in 10.0 mi SW 13.8 mph 23.0 mph N/A   Clear
1:54 PM 37.0 °F 30.4 °F 21.9 °F 54% 29.83 in 10.0 mi WSW 9.2 mph - N/A   Clear
2:54 PM 37.0 °F 29.3 °F 21.9 °F 54% 29.83 in 10.0 mi SW 11.5 mph 25.3 mph N/A   Clear
3:54 PM 35.1 °F 28.6 °F 21.9 °F 59% 29.85 in 10.0 mi SW 8.1 mph - N/A   Clear
5:54 PM 30.9 °F 24.3 °F 21.0 °F 67% 29.87 in 10.0 mi SSW 6.9 mph - N/A   Clear
6:54 PM 30.9 °F 23.5 °F 21.0 °F 67% 29.88 in 10.0 mi SW 8.1 mph - N/A   Clear
7:54 PM 30.9 °F 23.5 °F 21.0 °F 67% 29.89 in 10.0 mi WSW 8.1 mph - N/A   Clear
8:54 PM 30.9 °F 23.5 °F 21.0 °F 67% 29.90 in 10.0 mi WSW 8.1 mph - N/A   Clear
9:54 PM 30.0 °F 23.2 °F 21.0 °F 69% 29.91 in 10.0 mi SW 6.9 mph - N/A   Clear
11:54 PM 28.9 °F 21.9 °F 21.0 °F 72% 29.94 in 10.0 mi WSW 6.9 mph - N/A   Clear